Location: Winthrop
(48.4780°N, 120.1850°W)
Time: 17:14:03
(UTC-07:00)

Explorer 7 - Pass Details

Date: 30 January 2023
Orbit: 478 x 657 km, 50.3° (Epoch: 30 March)

Event Time Altitude Azimuth Distance (km) Brightness Sun altitude
Rises 19:30:39 0° 287° (WNW) 2,930 11.7 -25.6°
Reaches altitude 10° 19:33:15 10° 275° (W) 2,042 10.7 -26.0°
Maximum altitude 19:37:06 25° 220° (SW) 1,309 9.0 -26.7°
Enters shadow 19:38:36 22° 192° (SSW) 1,448 9.0 -26.9°
Drops below altitude 10° 19:41:01 10° 165° (SSE) 2,070 - -27.3°
Sets 19:43:41 0° 153° (SSE) 2,981 - -27.8°
